Temp
73 74 75 76 77 77 76 74 74 72 72 70 70 71 71 72 74 75 75 74 73 77 77 77 76 78 74 77 73 74 74 74 74 74 74 74 73 73 74 73 72 72 72 72 72 71 71 71 71 71 71 72 72 77 78 78 78 78 79 79 78 80
71 72 73 73 75 76 76 75 76 75 74 72 72 72 74 75 75 77 75 75 77 77 77 77 77 75 77 77 76 74 74 74 74 74 73 73 73 73 73 73 72 72 72 72 72 76 74 71 70 70 70 70 77 79 77 77 77 79 78 79 79 76
75 72 72 74 75 75 74 75 75 76 75 73 73 74 75 75 76 77 77 77 75 77 79 78 77 77 77 75 77 74 74 74 74 74 73 73 73 73 72 72 72 72 70 69 75 76 76 75 74 68 70 75 78 77 77 77 78 78 78 78 79 72
76 76 75 75 75 74 74 75 76 76 76 75 73 72 72 74 75 75 74 74 75 77 77 76 75 75 75 76 76 73 73 74 74 74 73 74 73 73 72 72 71 70 70 74 75 76 77 76 75 74 74 76 78 77 77 77 79 79 79 78 81 71
77 76 77 75 75 75 74 75 74 74 75 75 72 71 73 73 74 73 73 73 76 76 76 76 76 76 76 75 75 76 76 77 77 77 74 78 78 78 75 75 72 71 72 73 75 74 75 75 74 75 73 75 76 77 77 77 78 79 78 78 78 70
76 77 75 74 74 75 74 75 74 73 73 75 73 72 73 73 73 72 72 74 73 73 74 75 75 75 74 74 74 75 75 76 76 77 77 77 78 76 75 73 71 70 71 72 73 74 75 75 74 74 75 74 76 76 78 78 78 77 78 78 76 70
76 74 74 76 76 75 73 73 74 74 74 74 74 73 74 74 74 72 72 73 73 73 74 73 73 73 72 72 74 74 75 76 76 77 77 77 76 76 74 72 70 70 70 71 73 75 75 75 75 76 75 76 76 77 77 78 78 77 78 78 76 70
75 74 73 76 75 75 73 72 73 73 74 74 73 73 74 75 74 72 73 74 73 73 72 72 72 72 72 71 73 74 74 74 76 77 76 76 76 76 75 72 69 69 71 72 74 75 76 77 76 75 75 76 76 77 77 78 78 77 77 77 78 72
74 73 74 74 74 74 74 74 75 74 73 74 72 72 73 73 73 73 73 74 74 72 72 72 72 71 70 71 72 72 71 72 74 76 74 74 75 74 74 72 70 69 71 72 73 74 75 76 76 75 76 76 76 77 76 77 77 77 78 79 78 77
73 74 75 75 72 72 73 73 73 74 73 73 71 70 71 72 73 73 71 72 73 73 72 71 71 71 70 70 70 71 71 70 71 72 73 72 73 74 73 73 72 70 72 72 74 74 75 75 77 76 77 77 77 78 77 77 77 78 79 78 77 78
73 71 75 76 73 72 72 73 73 75 75 72 70 69 69 71 72 72 72 72 73 74 73 71 70 70 67 66 67 69 70 70 69 72 71 71 72 73 73 74 73 72 72 73 73 74 75 75 76 78 78 78 78 78 78 77 78 78 78 78 79 77
74 72 73 75 73 72 72 73 72 73 72 72 71 69 67 68 70 70 71 71 72 72 72 70 70 70 66 66 66 67 67 67 68 69 71 72 71 71 71 72 73 73 71 71 72 73 74 74 75 78 79 78 79 78 79 78 79 79 79 78 78 78
75 72 74 74 74 74 73 72 69 70 70 70 72 72 71 70 70 70 69 69 71 72 70 70 69 68 67 66 66 67 67 66 66 70 71 72 71 71 71 71 71 72 71 70 68 71 73 73 74 75 77 79 77 78 80 79 78 78 78 78 78 78
71 73 72 73 72 73 73 71 70 70 70 70 71 72 72 71 69 68 68 69 69 70 69 69 68 67 67 66 66 67 67 67 68 69 70 70 70 70 70 71 72 71 71 71 69 71 72 73 74 75 76 77 77 77 77 79 78 78 78 78 79 78
70 72 71 71 71 72 71 73 73 72 72 72 73 73 73 72 70 68 67 68 69 69 70 70 70 67 68 67 66 66 67 68 70 69 69 69 69 70 71 71 71 72 72 72 72 70 70 71 72 74 75 75 77 78 76 77 78 78 78 77 77 78
70 69 69 69 69 69 70 71 72 72 72 72 73 74 73 73 74 73 72 70 69 69 68 71 72 69 65 68 68 68 67 68 69 69 68 68 68 69 70 71 71 72 70 71 71 71 71 71 71 72 73 74 75 75 77 78 77 79 80 78 78 77
69 68 68 68 68 68 69 70 70 70 70 71 72 72 73 73 74 73 73 73 72 71 71 69 70 70 68 69 69 68 67 68 69 69 68 67 66 67 68 70 70 71 71 69 68 70 72 71 71 71 71 73 75 75 76 77 78 78 79 75 76 77
68 68 68 68 68 68 69 69 70 70 70 71 70 72 73 74 73 73 73 72 71 71 70 71 71 70 69 69 68 67 68 68 69 67 67 66 65 65 65 67 68 69 69 69 68 68 67 69 71 70 70 72 73 75 76 76 77 76 77 78 76 77
67 67 67 67 66 66 66 68 68 68 69 69 70 71 72 72 72 72 72 71 72 72 72 72 71 71 71 70 70 69 69 69 68 66 65 65 66 66 65 65 65 66 67 68 67 68 67 68 68 68 68 70 73 73 74 76 76 77 77 78 79 78
66 67 67 67 68 69 70 70 68 69 69 69 70 70 70 71 71 72 71 71 71 71 72 72 72 72 71 70 70 70 70 70 67 66 66 66 67 66 64 64 64 64 64 66 67 66 67 67 66 65 64 66 70 72 74 74 75 77 77 77 76 77
65 66 68 68 69 70 69 67 68 69 68 68 69 69 69 70 71 70 71 72 71 72 71 71 71 71 70 70 71 71 70 68 68 69 68 68 68 67 66 65 65 65 63 63 64 66 67 69 66 64 65 65 67 71 72 72 74 76 78 78 78 76
65 66 68 69 69 69 69 71 70 69 68 69 69 70 68 69 68 69 69 69 70 71 71 71 71 70 70 71 70 70 70 68 68 68 68 67 66 65 66 66 65 63 64 63 64 66 67 66 63 62 62 62 65 69 72 73 74 76 78 79 77 76
65 67 68 68 69 69 68 67 69 67 69 67 66 67 70 69 69 70 68 69 69 69 70 71 71 70 69 70 69 69 69 69 69 68 67 66 65 64 65 65 66 65 63 65 66 67 66 66 63 62 62 60 59 62 68 70 72 74 75 77 78 78
65 66 67 68 69 67 66 65 66 66 66 68 67 65 66 67 69 69 68 69 69 69 69 70 71 72 70 69 68 68 69 69 68 69 69 67 66 65 64 65 66 66 66 63 64 65 68 67 66 63 59 59 59 59 57 63 65 71 75 75 76 77
66 66 67 68 67 67 66 66 65 66 67 66 66 67 67 67 68 68 68 68 67 69 69 69 70 70 70 68 68 68 68 68 68 68 69 69 68 67 67 66 66 66 66 66 65 64 65 66 66 66 62 59 59 58 60 60 62 67 71 74 75 76
66 66 67 67 67 68 68 67 66 65 65 65 64 64 65 65 66 67 67 66 68 69 69 68 69 69 70 69 68 68 68 69 68 68 68 68 69 69 68 68 67 67 66 67 66 64 63 65 65 65 66 64 62 59 60 63 62 62 68 69 71 74
66 66 66 66 67 68 67 68 67 67 67 66 65 65 66 66 67 67 67 67 67 67 69 68 68 69 68 68 68 68 68 68 68 68 68 67 66 66 68 68 68 68 67 68 67 64 64 65 65 65 66 65 64 64 64 61 60 62 62 67 70 70
66 66 66 66 67 68 68 67 66 66 66 66 66 66 65 65 66 67 67 66 67 67 68 69 68 68 68 68 68 67 67 67 67 68 68 67 66 67 67 67 66 66 67 67 66 64 63 65 64 63 64 64 65 65 64 64 64 62 60 60 64 72
65 66 66 65 66 68 69 68 67 67 65 66 65 65 66 66 66 66 65 66 66 67 67 67 68 67 67 68 67 67 67 67 66 66 68 67 66 66 65 64 64 64 64 64 65 64 64 63 64 62 64 64 65 66 65 65 65 64 61 60 62 65
65 66 66 65 66 67 68 67 67 66 66 65 65 64 65 65 65 65 65 65 66 66 67 66 66 67 67 68 67 67 66 65 65 65 66 66 65 64 64 63 63 63 63 62 63 62 62 63 64 63 63 63 63 64 66 65 64 64 64 62 58 61
65 66 65 65 66 66 67 67 67 67 67 65 64 64 63 63 64 64 65 65 66 66 67 66 66 65 65 66 65 66 65 65 65 65 65 65 64 65 64 63 63 63 62 62 62 62 61 61 62 62 62 63 62 61 60 60 59 61 61 62 63 64
65 65 65 65 65 66 66 66 67 67 67 67 65 64 64 63 64 64 65 64 65 65 65 65 65 65 64 65 65 64 64 64 64 64 64 64 64 64 64 64 63 63 62 62 62 61 60 60 60 60 60 61 61 62 62 60 60 59 59 60 61 62
65 65 64 65 65 65 65 66 66 66 67 67 66 66 66 65 65 65 65 65 64 65 65 64 65 65 64 64 65 64 65 64 64 64 64 64 63 64 63 63 62 61 61 61 61 60 60 58 59 59 59 60 62 62 62 62 62 61 61 61 62 60
65 65 65 64 65 65 65 66 66 66 66 66 65 65 66 66 65 66 66 65 65 66 65 65 65 65 65 65 65 65 65 64 64 64 64 63 63 64 64 64 62 61 61 61 61 60 60 59 59 59 59 59 59 60 61 61 61 62 60 60 60 59
65 65 64 64 64 64 65 65 66 66 66 67 66 66 67 67 66 65 65 66 66 66 66 66 66 66 65 65 64 64 64 63 63 63 63 63 63 63 63 63 63 61 61 61 61 60 60 59 59 59 58 59 59 60 60 61 60 60 61 61 60 59
65 65 64 64 64 65 65 65 65 65 65 65 66 67 66 66 66 65 65 66 66 66 67 67 67 65 64 65 64 64 64 64 64 63 64 64 64 64 63 62 62 61 60 62 60 60 60 60 58 58 58 59 59 59 59 60 61 60 61 61 61 60
65 65 64 64 64 64 64 64 64 64 65 64 65 65 65 64 64 64 65 65 66 66 66 66 65 65 64 65 65 64 64 63 63 63 63 63 63 63 63 62 61 60 60 61 61 60 60 59 59 59 59 57 59 59 59 59 59 60 60 60 60 61
MSLP
1015.66 1015.70 1015.66 1015.66 1015.70 1015.86 1016.02 1016.14 1016.26 1016.54 1016.82 1017.22 1017.34 1017.26 1017.34 1017.14 1017.14 1017.14 1017.18 1017.30 1017.42 1017.42 1017.46 1017.58 1017.66 1017.58 1017.86 1017.94 1018.10 1018.22 1018.34 1018.42 1018.50 1018.54 1018.62 1018.82 1018.98 1019.06 1019.14 1019.26 1019.38 1019.50 1019.62 1019.70 1019.74 1019.90 1020.02 1020.10 1020.06 1019.98 1019.94 1019.94 1020.06 1020.02 1019.98 1020.10 1020.22 1020.30 1020.34 1020.38 1020.54 1020.46
1015.94 1015.90 1015.90 1015.94 1015.86 1015.98 1016.06 1016.14 1016.22 1016.42 1016.70 1016.90 1017.10 1017.18 1017.14 1017.10 1017.14 1017.14 1017.22 1017.34 1017.38 1017.38 1017.46 1017.58 1017.66 1017.82 1017.82 1017.90 1018.10 1018.26 1018.38 1018.46 1018.50 1018.58 1018.70 1018.82 1018.98 1019.14 1019.22 1019.30 1019.42 1019.58 1019.70 1019.82 1019.78 1019.74 1019.94 1020.14 1020.18 1020.18 1020.06 1020.02 1019.94 1019.86 1020.02 1020.14 1020.22 1020.26 1020.42 1020.42 1020.50 1020.70
1015.90 1016.06 1016.06 1016.06 1016.02 1016.06 1016.22 1016.22 1016.34 1016.42 1016.62 1016.86 1017.02 1017.02 1017.10 1017.14 1017.14 1017.22 1017.26 1017.34 1017.46 1017.38 1017.34 1017.46 1017.66 1017.74 1017.78 1017.94 1018.02 1018.30 1018.42 1018.50 1018.58 1018.66 1018.78 1018.90 1019.02 1019.22 1019.34 1019.42 1019.46 1019.62 1019.78 1019.94 1019.82 1019.74 1019.82 1020.02 1020.14 1020.30 1020.18 1019.98 1019.82 1019.94 1020.02 1020.14 1020.22 1020.26 1020.42 1020.42 1020.46 1020.86
1015.86 1015.94 1016.02 1016.10 1016.14 1016.22 1016.30 1016.26 1016.34 1016.50 1016.54 1016.78 1017.06 1017.26 1017.38 1017.30 1017.30 1017.34 1017.50 1017.50 1017.50 1017.42 1017.46 1017.50 1017.66 1017.82 1017.94 1018.06 1018.14 1018.34 1018.46 1018.58 1018.66 1018.74 1018.86 1018.94 1019.10 1019.26 1019.38 1019.54 1019.78 1019.78 1019.86 1019.86 1019.86 1019.86 1019.82 1020.02 1020.14 1020.18 1020.14 1019.98 1019.90 1020.02 1020.14 1020.22 1020.18 1020.22 1020.26 1020.50 1020.42 1020.94
1015.82 1015.90 1015.94 1016.10 1016.30 1016.30 1016.42 1016.34 1016.46 1016.62 1016.70 1016.78 1017.14 1017.34 1017.34 1017.38 1017.46 1017.50 1017.54 1017.58 1017.50 1017.50 1017.54 1017.62 1017.78 1017.90 1018.02 1018.18 1018.34 1018.42 1018.54 1018.62 1018.66 1018.74 1018.86 1018.82 1018.94 1019.06 1019.34 1019.50 1019.74 1019.86 1019.94 1019.94 1019.98 1020.02 1019.98 1020.06 1020.22 1020.26 1020.30 1020.18 1020.06 1020.06 1020.14 1020.22 1020.26 1020.30 1020.34 1020.42 1020.54 1020.98
1015.86 1015.86 1016.02 1016.14 1016.22 1016.30 1016.42 1016.54 1016.62 1016.66 1016.78 1016.82 1017.06 1017.18 1017.26 1017.38 1017.50 1017.62 1017.70 1017.62 1017.62 1017.66 1017.70 1017.74 1017.90 1018.02 1018.18 1018.34 1018.50 1018.62 1018.62 1018.62 1018.70 1018.74 1018.74 1018.86 1018.94 1019.14 1019.42 1019.62 1019.78 1020.06 1020.14 1020.06 1020.06 1020.02 1019.98 1020.06 1020.22 1020.34 1020.30 1020.30 1020.14 1020.14 1020.10 1020.18 1020.26 1020.38 1020.34 1020.46 1020.66 1020.98
1015.90 1016.02 1016.10 1016.02 1016.10 1016.26 1016.50 1016.58 1016.62 1016.66 1016.78 1016.90 1016.94 1017.14 1017.22 1017.30 1017.42 1017.58 1017.62 1017.58 1017.74 1017.82 1017.78 1017.90 1017.98 1018.14 1018.34 1018.54 1018.66 1018.62 1018.66 1018.58 1018.70 1018.70 1018.70 1018.86 1019.02 1019.18 1019.38 1019.66 1019.78 1019.98 1020.22 1020.22 1020.06 1020.02 1020.02 1020.06 1020.14 1020.26 1020.34 1020.30 1020.18 1020.10 1020.18 1020.18 1020.26 1020.34 1020.42 1020.50 1020.62 1021.02
1015.90 1016.02 1016.14 1016.02 1016.18 1016.30 1016.46 1016.66 1016.66 1016.70 1016.78 1016.90 1017.06 1017.18 1017.14 1017.14 1017.30 1017.42 1017.50 1017.50 1017.62 1017.70 1017.82 1017.98 1018.10 1018.26 1018.38 1018.54 1018.62 1018.58 1018.62 1018.70 1018.66 1018.62 1018.70 1018.78 1019.06 1019.14 1019.30 1019.54 1019.82 1019.98 1020.18 1020.14 1020.06 1019.98 1019.98 1019.98 1020.10 1020.22 1020.34 1020.34 1020.30 1020.18 1020.18 1020.14 1020.22 1020.34 1020.38 1020.46 1020.54 1020.90
1015.82 1016.02 1016.02 1016.06 1016.30 1016.34 1016.42 1016.50 1016.50 1016.66 1016.82 1016.86 1017.10 1017.22 1017.22 1017.22 1017.34 1017.42 1017.42 1017.42 1017.50 1017.70 1017.74 1017.94 1018.18 1018.34 1018.42 1018.54 1018.58 1018.62 1018.74 1018.78 1018.66 1018.62 1018.82 1018.86 1018.94 1019.18 1019.30 1019.46 1019.70 1019.86 1019.94 1020.06 1020.06 1020.02 1019.98 1019.98 1019.98 1020.10 1020.22 1020.26 1020.26 1020.26 1020.26 1020.22 1020.26 1020.34 1020.34 1020.38 1020.50 1020.66
1015.82 1015.94 1015.94 1016.06 1016.30 1016.42 1016.46 1016.54 1016.62 1016.58 1016.78 1016.90 1017.14 1017.22 1017.30 1017.26 1017.26 1017.34 1017.50 1017.46 1017.42 1017.50 1017.70 1017.90 1018.18 1018.38 1018.54 1018.74 1018.74 1018.70 1018.82 1018.94 1018.94 1018.90 1018.98 1019.10 1019.06 1019.10 1019.18 1019.22 1019.42 1019.70 1019.82 1019.94 1019.98 1019.98 1019.94 1020.02 1019.98 1019.98 1020.02 1020.10 1020.18 1020.18 1020.22 1020.22 1020.26 1020.30 1020.26 1020.38 1020.50 1020.58
1015.86 1015.98 1015.94 1016.06 1016.30 1016.46 1016.46 1016.50 1016.58 1016.50 1016.62 1016.98 1017.14 1017.30 1017.38 1017.34 1017.26 1017.34 1017.42 1017.50 1017.46 1017.42 1017.62 1017.90 1018.14 1018.34 1018.90 1019.10 1019.06 1018.82 1018.86 1018.90 1019.10 1018.98 1018.94 1018.98 1018.98 1019.06 1019.10 1019.18 1019.30 1019.54 1019.70 1019.82 1019.94 1019.90 1019.90 1020.02 1019.98 1019.82 1019.86 1019.98 1020.06 1020.10 1020.14 1020.14 1020.18 1020.26 1020.34 1020.34 1020.38 1020.50
1015.82 1015.98 1016.06 1016.10 1016.30 1016.50 1016.58 1016.58 1016.70 1016.70 1016.86 1016.98 1017.10 1017.34 1017.42 1017.58 1017.38 1017.38 1017.46 1017.54 1017.54 1017.54 1017.70 1018.02 1018.26 1018.50 1019.02 1019.26 1018.78 1018.90 1019.10 1019.26 1019.06 1018.70 1018.74 1018.94 1019.18 1019.14 1019.22 1019.38 1019.34 1019.42 1019.66 1019.78 1019.86 1019.90 1019.90 1019.94 1019.94 1019.74 1019.66 1019.86 1019.90 1020.06 1020.06 1020.06 1020.10 1020.14 1020.22 1020.30 1020.38 1020.46
1015.86 1016.06 1016.10 1016.22 1016.34 1016.42 1016.50 1016.70 1016.94 1016.98 1017.02 1017.10 1017.06 1017.18 1017.38 1017.54 1017.42 1017.50 1017.62 1017.66 1017.66 1017.66 1017.82 1018.06 1018.22 1018.46 1018.74 1018.98 1018.42 1018.62 1018.86 1019.06 1018.62 1018.66 1018.82 1018.90 1019.10 1019.22 1019.26 1019.38 1019.46 1019.50 1019.70 1019.82 1020.02 1019.98 1019.90 1019.90 1019.94 1019.86 1019.74 1019.66 1019.78 1019.90 1019.86 1019.98 1020.06 1020.10 1020.18 1020.22 1020.26 1020.34
1016.02 1016.06 1016.22 1016.26 1016.42 1016.50 1016.66 1016.82 1016.98 1017.02 1017.10 1017.10 1017.10 1017.14 1017.26 1017.30 1017.46 1017.62 1017.74 1017.78 1017.74 1017.74 1017.94 1018.06 1018.34 1018.38 1018.74 1018.98 1018.58 1018.26 1018.46 1018.42 1018.86 1018.94 1018.82 1018.82 1019.02 1019.14 1019.26 1019.30 1019.38 1019.50 1019.66 1019.78 1019.98 1019.90 1019.90 1019.90 1019.78 1019.70 1019.70 1019.66 1019.66 1019.70 1019.78 1019.86 1019.94 1019.98 1020.06 1020.10 1020.06 1020.22
1016.06 1016.14 1016.30 1016.42 1016.54 1016.62 1016.74 1016.78 1016.90 1016.98 1017.06 1017.06 1017.06 1017.14 1017.18 1017.30 1017.50 1017.74 1017.94 1017.90 1017.82 1017.86 1017.98 1018.10 1018.18 1018.34 1018.46 1018.70 1018.58 1018.26 1018.50 1018.70 1018.74 1018.66 1018.74 1018.78 1018.94 1019.10 1019.26 1019.34 1019.34 1019.42 1019.42 1019.58 1019.66 1019.82 1019.90 1019.90 1019.86 1019.78 1019.66 1019.62 1019.58 1019.50 1019.66 1019.70 1019.74 1019.86 1019.90 1019.98 1020.10 1020.10
1016.10 1016.26 1016.42 1016.54 1016.62 1016.74 1016.82 1016.86 1016.90 1017.02 1017.06 1017.14 1017.14 1017.18 1017.26 1017.30 1017.30 1017.46 1017.58 1017.70 1017.90 1017.98 1018.06 1017.98 1018.06 1018.22 1018.58 1018.42 1018.26 1018.34 1018.30 1018.38 1018.54 1018.66 1018.82 1018.94 1019.22 1019.46 1019.42 1019.34 1019.30 1019.30 1019.54 1019.58 1019.62 1019.62 1019.62 1019.78 1019.78 1019.82 1019.70 1019.62 1019.54 1019.50 1019.42 1019.46 1019.58 1019.58 1019.58 1019.78 1019.86 1020.02
1016.30 1016.42 1016.54 1016.66 1016.74 1016.86 1016.94 1017.02 1017.10 1017.18 1017.30 1017.30 1017.26 1017.34 1017.38 1017.42 1017.42 1017.50 1017.54 1017.62 1017.70 1017.74 1017.82 1018.02 1018.06 1018.14 1018.30 1018.38 1018.42 1018.42 1018.30 1018.26 1018.34 1018.58 1018.94 1019.26 1019.70 1019.62 1019.50 1019.34 1019.30 1019.30 1019.34 1019.62 1019.86 1019.82 1019.58 1019.66 1019.78 1019.78 1019.70 1019.62 1019.46 1019.46 1019.38 1019.26 1019.26 1019.38 1019.50 1019.82 1019.90 1019.90
1016.38 1016.46 1016.50 1016.66 1016.78 1016.90 1017.02 1017.14 1017.22 1017.30 1017.38 1017.38 1017.46 1017.42 1017.42 1017.38 1017.50 1017.54 1017.54 1017.66 1017.74 1017.82 1017.90 1017.98 1017.98 1018.06 1018.18 1018.30 1018.50 1018.46 1018.38 1018.50 1018.50 1018.66 1018.98 1019.38 1019.58 1019.50 1019.38 1019.18 1019.46 1019.46 1019.46 1019.58 1019.78 1019.86 1019.86 1019.70 1019.74 1019.82 1019.66 1019.62 1019.50 1019.30 1019.22 1019.22 1019.18 1019.34 1019.42 1019.54 1019.70 1019.78
1016.54 1016.62 1016.66 1016.74 1016.90 1017.06 1017.18 1017.26 1017.38 1017.46 1017.54 1017.58 1017.58 1017.62 1017.54 1017.54 1017.62 1017.62 1017.74 1017.86 1017.86 1017.90 1017.98 1017.98 1017.98 1017.98 1018.10 1018.22 1018.26 1018.30 1018.34 1018.34 1018.54 1018.82 1019.02 1019.10 1019.18 1019.18 1019.38 1019.54 1019.66 1019.70 1019.62 1019.70 1019.82 1019.78 1019.86 1019.82 1019.94 1020.02 1019.94 1019.78 1019.58 1019.38 1019.18 1019.06 1019.10 1019.14 1019.22 1019.26 1019.34 1019.46
1016.66 1016.74 1016.78 1016.86 1016.98 1017.06 1017.14 1017.30 1017.54 1017.62 1017.66 1017.74 1017.70 1017.78 1017.78 1017.78 1017.74 1017.82 1017.90 1017.94 1017.98 1018.02 1017.94 1017.94 1017.94 1017.94 1018.06 1018.18 1018.30 1018.30 1018.34 1018.42 1018.62 1018.70 1018.74 1019.14 1019.14 1019.26 1019.62 1019.70 1019.70 1019.78 1020.02 1019.90 1019.86 1019.90 1019.90 1019.90 1020.02 1020.14 1020.10 1020.10 1019.70 1019.38 1019.18 1019.06 1019.06 1019.02 1019.02 1019.10 1019.26 1019.26
1016.86 1016.90 1016.90 1016.98 1017.02 1017.06 1017.34 1017.62 1017.66 1017.70 1017.86 1017.94 1017.90 1017.98 1018.02 1017.98 1017.94 1018.02 1018.02 1017.98 1018.02 1018.02 1018.02 1017.98 1017.98 1018.02 1018.10 1018.14 1018.18 1018.26 1018.42 1018.54 1018.54 1018.58 1018.70 1018.74 1018.86 1019.10 1019.34 1019.42 1019.38 1019.54 1019.90 1019.98 1020.02 1019.86 1019.78 1019.74 1020.02 1020.14 1020.02 1019.94 1019.62 1019.14 1019.02 1019.06 1018.98 1018.86 1018.82 1018.78 1018.86 1019.14
1016.90 1016.98 1016.94 1016.90 1017.02 1017.10 1017.14 1017.22 1017.46 1017.74 1017.82 1017.94 1017.98 1018.02 1018.18 1018.18 1018.22 1018.26 1018.22 1018.22 1018.18 1018.14 1018.10 1018.06 1018.10 1018.14 1018.18 1018.18 1018.22 1018.26 1018.30 1018.50 1018.54 1018.58 1018.70 1018.82 1018.94 1018.98 1018.82 1018.98 1019.14 1019.50 1019.50 1019.74 1019.90 1019.70 1019.70 1019.82 1020.22 1020.34 1020.34 1020.06 1019.62 1019.06 1018.78 1018.82 1018.82 1018.70 1018.54 1018.54 1018.66 1018.86
1016.78 1016.90 1016.98 1016.94 1016.98 1017.18 1017.34 1017.46 1017.46 1017.82 1017.82 1018.14 1018.22 1018.14 1018.06 1018.22 1018.26 1018.34 1018.46 1018.42 1018.38 1018.30 1018.22 1018.18 1018.22 1018.26 1018.34 1018.34 1018.34 1018.38 1018.46 1018.42 1018.50 1018.54 1018.66 1018.82 1018.94 1018.98 1018.82 1018.86 1018.98 1019.10 1019.50 1019.50 1019.58 1019.54 1019.58 1019.62 1020.06 1020.14 1020.18 1020.34 1020.30 1020.02 1019.14 1018.98 1018.78 1018.70 1018.54 1018.38 1018.38 1018.54
1016.66 1016.78 1016.90 1016.98 1016.98 1017.14 1017.38 1017.58 1017.66 1017.86 1018.06 1018.06 1018.26 1018.46 1018.42 1018.38 1018.34 1018.38 1018.54 1018.50 1018.50 1018.46 1018.38 1018.38 1018.34 1018.34 1018.46 1018.54 1018.54 1018.58 1018.54 1018.58 1018.62 1018.54 1018.58 1018.78 1018.94 1019.06 1019.02 1018.90 1018.90 1018.94 1019.14 1019.58 1019.58 1019.62 1019.30 1019.38 1019.58 1020.02 1020.50 1020.42 1020.42 1020.38 1020.58 1019.98 1019.74 1018.86 1018.34 1018.38 1018.42 1018.42
1016.46 1016.58 1016.78 1016.90 1017.06 1017.14 1017.38 1017.62 1017.86 1018.02 1018.10 1018.34 1018.42 1018.38 1018.38 1018.46 1018.46 1018.50 1018.58 1018.62 1018.70 1018.58 1018.54 1018.54 1018.54 1018.54 1018.54 1018.66 1018.66 1018.66 1018.70 1018.78 1018.78 1018.78 1018.70 1018.82 1019.02 1019.14 1019.14 1019.14 1019.06 1019.14 1019.18 1019.34 1019.50 1019.54 1019.50 1019.38 1019.54 1019.50 1019.86 1020.34 1020.38 1020.58 1020.34 1020.26 1020.02 1019.22 1018.66 1018.50 1018.42 1018.38
1016.42 1016.54 1016.70 1016.86 1016.94 1016.98 1017.18 1017.46 1017.74 1018.06 1018.34 1018.50 1018.62 1018.66 1018.54 1018.54 1018.58 1018.58 1018.66 1018.82 1018.74 1018.70 1018.66 1018.74 1018.70 1018.70 1018.74 1018.74 1018.86 1018.82 1018.86 1018.86 1018.94 1018.98 1019.02 1019.06 1019.10 1019.14 1019.26 1019.26 1019.30 1019.22 1019.26 1019.22 1019.38 1019.58 1019.78 1019.50 1019.42 1019.50 1019.50 1019.66 1019.90 1020.30 1020.30 1019.90 1020.06 1020.10 1018.86 1018.74 1018.74 1018.54
1016.30 1016.50 1016.58 1016.74 1016.82 1016.82 1017.14 1017.30 1017.50 1017.66 1017.86 1018.14 1018.34 1018.46 1018.46 1018.46 1018.46 1018.62 1018.70 1018.78 1018.86 1018.86 1018.78 1018.86 1018.94 1018.90 1018.94 1018.94 1018.98 1019.02 1019.06 1019.06 1019.14 1019.22 1019.26 1019.34 1019.46 1019.54 1019.50 1019.50 1019.50 1019.42 1019.46 1019.38 1019.30 1019.54 1019.66 1019.78 1019.62 1019.62 1019.58 1019.58 1019.66 1019.78 1019.82 1020.18 1020.30 1019.90 1019.86 1019.06 1018.78 1018.82
1016.30 1016.46 1016.58 1016.62 1016.70 1016.62 1016.82 1017.14 1017.46 1017.78 1017.98 1018.10 1018.22 1018.30 1018.58 1018.62 1018.62 1018.66 1018.74 1018.86 1018.86 1018.98 1018.98 1018.94 1019.06 1019.10 1019.10 1019.10 1019.18 1019.26 1019.26 1019.30 1019.34 1019.42 1019.42 1019.58 1019.74 1019.78 1019.74 1019.82 1019.82 1019.82 1019.70 1019.66 1019.74 1019.90 1020.02 1019.86 1019.74 1019.98 1019.82 1019.74 1019.70 1019.70 1019.74 1019.82 1019.78 1019.94 1019.98 1020.02 1019.46 1018.58
1016.14 1016.34 1016.54 1016.62 1016.54 1016.58 1016.58 1016.82 1017.14 1017.54 1017.98 1018.14 1018.34 1018.42 1018.54 1018.62 1018.66 1018.70 1018.82 1018.90 1018.90 1018.98 1019.10 1019.18 1019.14 1019.22 1019.26 1019.26 1019.34 1019.42 1019.46 1019.54 1019.58 1019.66 1019.62 1019.78 1019.94 1020.02 1020.10 1020.18 1020.18 1020.14 1020.18 1020.22 1020.14 1020.18 1020.14 1020.26 1020.18 1020.30 1019.98 1019.98 1019.82 1019.74 1019.62 1019.66 1019.62 1019.66 1019.94 1020.10 1019.70 1019.50
1015.98 1016.10 1016.34 1016.54 1016.50 1016.50 1016.58 1016.78 1017.06 1017.38 1017.66 1018.10 1018.30 1018.50 1018.54 1018.70 1018.78 1018.78 1018.86 1018.94 1018.98 1019.02 1019.10 1019.26 1019.34 1019.34 1019.38 1019.42 1019.50 1019.58 1019.66 1019.78 1019.86 1019.90 1019.94 1020.02 1020.10 1020.22 1020.30 1020.38 1020.46 1020.46 1020.50 1020.50 1020.58 1020.62 1020.62 1020.54 1020.46 1020.58 1020.46 1020.34 1020.26 1020.06 1019.74 1019.70 1019.82 1019.74 1019.66 1019.82 1020.30 1020.10
1015.70 1015.86 1016.18 1016.42 1016.42 1016.50 1016.54 1016.70 1016.86 1017.14 1017.42 1017.82 1018.18 1018.38 1018.62 1018.86 1018.86 1018.90 1018.86 1018.94 1018.94 1019.02 1019.06 1019.22 1019.38 1019.50 1019.54 1019.58 1019.66 1019.70 1019.82 1019.94 1020.02 1020.10 1020.18 1020.22 1020.30 1020.34 1020.46 1020.54 1020.62 1020.66 1020.70 1020.74 1020.78 1020.86 1020.90 1020.98 1020.90 1020.90 1020.82 1020.66 1020.70 1020.74 1020.70 1020.58 1020.70 1020.42 1020.26 1019.94 1019.74 1019.58
1015.54 1015.70 1015.98 1016.22 1016.38 1016.46 1016.50 1016.62 1016.70 1016.90 1017.18 1017.42 1017.82 1018.14 1018.30 1018.54 1018.70 1018.74 1018.78 1018.90 1018.94 1019.06 1019.18 1019.30 1019.38 1019.50 1019.66 1019.70 1019.74 1019.82 1019.94 1019.98 1020.10 1020.22 1020.34 1020.42 1020.50 1020.58 1020.66 1020.70 1020.78 1020.82 1020.94 1021.02 1021.06 1021.06 1021.18 1021.26 1021.22 1021.14 1021.22 1021.14 1021.06 1020.94 1020.94 1020.98 1020.94 1020.94 1020.86 1020.50 1020.30 1019.94
1015.26 1015.54 1015.82 1016.06 1016.22 1016.34 1016.46 1016.46 1016.62 1016.82 1016.94 1017.18 1017.50 1017.66 1017.86 1018.14 1018.38 1018.54 1018.66 1018.82 1018.94 1018.98 1019.10 1019.26 1019.38 1019.46 1019.66 1019.70 1019.70 1019.82 1019.86 1019.94 1020.10 1020.26 1020.38 1020.46 1020.62 1020.70 1020.78 1020.90 1021.06 1021.14 1021.22 1021.26 1021.34 1021.38 1021.50 1021.70 1021.70 1021.62 1021.58 1021.54 1021.42 1021.30 1021.22 1021.22 1021.14 1021.10 1020.90 1020.74 1020.50 1020.38
1014.90 1015.26 1015.58 1015.86 1016.02 1016.18 1016.30 1016.30 1016.38 1016.58 1016.74 1016.94 1017.22 1017.42 1017.54 1017.74 1018.10 1018.22 1018.38 1018.58 1018.66 1018.66 1018.86 1018.94 1019.14 1019.30 1019.50 1019.62 1019.70 1019.74 1019.82 1019.94 1020.06 1020.22 1020.38 1020.50 1020.58 1020.66 1020.74 1020.86 1021.10 1021.22 1021.34 1021.42 1021.50 1021.54 1021.62 1021.74 1021.82 1021.90 1021.86 1021.78 1021.78 1021.70 1021.62 1021.66 1021.42 1021.26 1021.18 1020.94 1020.82 1020.74
1014.98 1015.22 1015.42 1015.58 1015.78 1015.94 1016.10 1016.22 1016.30 1016.42 1016.66 1016.78 1016.94 1017.14 1017.30 1017.42 1017.74 1018.02 1018.22 1018.34 1018.42 1018.50 1018.58 1018.74 1018.94 1019.10 1019.42 1019.58 1019.70 1019.82 1019.90 1019.98 1020.14 1020.26 1020.34 1020.46 1020.54 1020.62 1020.74 1020.82 1021.02 1021.22 1021.30 1021.38 1021.50 1021.54 1021.70 1021.78 1021.86 1021.94 1021.98 1021.94 1021.94 1021.82 1021.82 1021.74 1021.70 1021.62 1021.38 1021.22 1021.22 1021.10
1014.90 1015.18 1015.54 1015.78 1015.94 1016.02 1016.18 1016.26 1016.38 1016.50 1016.62 1016.82 1016.90 1017.02 1017.22 1017.50 1017.74 1017.90 1018.06 1018.18 1018.34 1018.42 1018.42 1018.58 1018.78 1019.06 1019.42 1019.54 1019.74 1019.86 1019.98 1020.06 1020.14 1020.22 1020.26 1020.34 1020.38 1020.46 1020.66 1020.82 1020.98 1021.14 1021.30 1021.34 1021.50 1021.58 1021.58 1021.70 1021.90 1021.98 1021.98 1021.98 1021.82 1021.90 1021.90 1021.82 1021.70 1021.74 1021.62 1021.54 1021.38 1021.26
1014.90 1015.02 1015.26 1015.46 1015.70 1016.02 1016.30 1016.54 1016.78 1016.90 1016.94 1017.02 1017.10 1017.14 1017.22 1017.42 1017.70 1017.98 1018.10 1018.18 1018.30 1018.34 1018.46 1018.58 1018.70 1018.90 1019.22 1019.42 1019.58 1019.74 1019.94 1020.14 1020.26 1020.30 1020.38 1020.38 1020.42 1020.46 1020.58 1020.74 1020.94 1021.10 1021.22 1021.30 1021.34 1021.50 1021.54 1021.58 1021.74 1021.74 1021.82 1021.94 1021.82 1021.74 1021.86 1021.90 1021.82 1021.74 1021.70 1021.66 1021.50 1021.42
Wind_Speed
7 7 6 5 6 5 6 8 8 12 14 12 6 8 4 3 5 8 8 7 7 6 6 6 8 8 12 10 9 9 11 10 9 8 7 6 9 10 10 10 10 10 10 11 10 8 5 3 2 4 6 5 8 7 4 4 5 3 3 3 3 3
6 7 6 5 3 4 5 4 6 6 7 10 8 8 6 4 5 5 6 6 6 5 6 6 5 6 6 8 9 10 10 10 9 8 7 5 6 8 10 10 11 10 9 9 10 6 5 4 4 5 4 6 4 3 4 4 4 4 3 3 3 4
7 7 7 6 5 4 4 4 5 6 6 8 7 5 5 5 4 4 4 5 4 5 5 6 5 5 5 7 7 10 9 9 8 8 7 5 4 6 6 9 10 12 10 6 3 4 4 3 1 3 1 2 2 2 4 4 4 3 4 3 3 5
6 6 6 5 5 5 4 4 4 5 5 5 6 6 4 3 3 3 3 3 3 4 5 5 6 6 6 5 6 9 9 8 8 8 7 6 4 4 7 8 9 11 7 3 2 2 3 3 2 1 1 0 2 3 4 4 3 3 3 4 3 7
4 4 5 5 5 5 4 4 4 4 4 4 5 5 4 5 3 4 3 3 3 4 4 4 3 3 3 2 2 4 5 5 5 5 8 4 4 5 5 5 6 5 3 4 3 2 2 3 2 1 1 1 1 3 3 3 2 2 3 3 3 7
4 4 4 4 3 5 5 4 4 3 4 4 5 4 4 4 4 4 3 4 3 4 4 3 3 3 3 2 4 4 4 4 5 5 5 4 4 4 3 3 4 4 2 2 3 2 1 2 2 1 0 0 1 2 2 3 3 3 2 2 4 7
4 4 4 4 4 4 3 4 4 4 3 4 4 4 4 4 4 5 5 5 4 3 3 3 3 4 4 1 4 4 4 5 5 5 4 3 4 3 3 4 4 4 3 2 3 3 1 1 2 1 0 1 0 2 2 3 3 3 2 2 3 8
5 5 5 5 5 4 4 4 5 5 4 4 4 3 3 3 4 4 6 6 4 4 4 3 4 4 4 5 4 4 4 4 4 4 3 3 3 3 2 3 4 5 4 3 3 3 2 1 1 2 0 1 1 1 1 2 2 2 2 3 3 6
5 4 4 5 4 4 4 4 4 4 4 5 4 4 4 4 4 4 5 6 6 5 4 4 4 4 4 4 4 4 4 4 3 4 4 4 3 4 3 3 3 4 3 3 3 3 3 2 0 1 1 1 1 1 1 2 2 3 3 3 3 4
4 3 4 4 4 4 4 4 4 4 4 4 4 3 4 4 3 4 3 5 5 5 5 5 4 3 4 3 3 5 4 3 4 2 4 4 4 3 4 4 3 3 3 3 3 3 2 2 1 0 1 1 2 2 1 1 2 2 2 3 3 2
4 4 3 3 3 3 3 3 3 2 3 3 4 3 1 2 2 3 3 4 5 5 4 4 5 4 2 1 2 3 4 3 4 3 5 5 5 4 3 3 4 4 4 3 3 2 2 2 1 2 1 2 2 2 3 2 2 2 3 3 3 3
4 4 4 3 3 3 3 3 2 1 2 2 3 2 0 2 2 1 2 3 4 4 4 4 4 2 4 3 4 4 2 2 3 6 5 5 4 3 2 2 2 2 2 1 2 2 2 2 2 2 2 2 3 3 4 4 4 4 4 3 3 3
5 4 5 4 3 3 2 3 3 2 2 2 2 3 5 3 1 1 1 2 3 3 2 3 3 1 2 3 4 5 5 5 7 6 4 5 5 4 3 3 3 2 2 2 2 2 2 2 2 2 2 2 2 4 4 4 4 4 5 4 4 4
6 6 4 3 2 2 3 3 3 3 3 3 2 2 2 2 2 1 2 1 1 2 2 2 3 2 1 3 5 5 5 7 6 4 4 5 6 5 5 3 3 3 3 3 2 2 2 3 2 2 2 2 3 3 3 5 4 4 4 4 4 4
6 5 4 4 4 4 3 4 4 4 3 2 3 3 2 2 3 4 3 1 1 2 1 1 3 3 3 5 7 6 6 4 4 5 5 4 5 6 5 4 4 4 4 3 3 2 1 1 2 3 2 2 3 3 3 4 4 4 5 4 3 4
6 6 5 4 4 4 4 3 4 3 3 2 3 3 2 3 3 3 3 3 2 2 2 1 1 4 5 6 5 3 4 4 6 5 5 4 3 2 4 5 5 5 4 4 3 2 1 2 2 2 1 2 2 3 4 4 4 5 5 4 4 4
7 7 6 5 5 4 3 4 3 3 2 2 3 3 3 3 3 3 3 4 3 3 4 2 1 2 2 2 0 3 2 3 4 5 4 2 0 2 3 5 4 5 5 3 2 2 3 2 2 2 2 2 2 2 3 3 4 4 3 4 4 4
5 5 5 5 4 4 4 4 4 3 3 3 3 3 3 3 4 4 5 5 5 5 4 3 3 3 3 2 1 3 3 3 2 1 3 3 4 6 6 7 4 3 4 4 3 3 2 2 2 4 4 3 3 3 2 3 3 2 4 5 5 5
5 5 5 5 5 5 5 5 4 4 4 4 4 3 3 4 4 5 5 6 6 5 4 4 4 4 3 3 3 2 2 2 2 2 2 4 3 6 8 7 5 4 3 3 4 3 1 1 2 2 4 6 5 4 2 2 2 3 4 5 6 5
5 4 4 5 5 5 4 4 5 4 4 3 4 4 4 4 4 5 5 5 5 4 4 3 4 4 3 3 3 3 3 4 4 4 2 1 2 2 3 6 6 7 4 3 3 3 4 2 1 2 3 6 7 4 4 2 3 4 4 5 5 4
5 4 5 5 5 6 5 4 3 4 4 4 4 4 4 3 4 4 5 6 5 5 4 4 3 4 4 3 3 4 3 3 2 2 2 3 4 2 3 3 3 5 6 6 4 5 5 2 2 3 4 4 4 5 5 4 4 5 6 5 4 5
6 5 4 5 4 3 3 4 4 4 4 5 5 5 5 4 3 3 4 4 4 4 4 4 4 5 5 5 4 5 4 3 2 2 3 4 5 5 5 5 3 3 5 6 5 4 3 4 2 3 2 1 2 3 4 5 5 6 6 6 5 6
6 6 5 4 5 4 2 2 3 4 4 4 2 2 3 4 4 5 4 4 4 3 4 4 5 5 4 5 5 5 5 5 5 4 6 6 5 4 2 2 3 3 5 3 2 3 5 4 2 2 1 1 1 2 1 1 4 6 6 6 5 6
7 6 5 4 4 4 5 5 6 5 3 2 3 3 3 3 4 5 5 4 4 3 4 4 5 6 5 5 5 5 5 5 5 5 6 7 7 6 5 4 1 3 4 4 2 2 2 3 3 4 2 1 1 0 2 2 2 2 5 6 7 7
8 8 6 6 6 6 7 7 6 6 5 5 4 3 4 3 3 4 4 5 4 3 4 4 5 6 6 6 5 5 6 5 6 5 6 7 7 7 6 5 5 4 2 1 3 2 2 2 4 2 2 2 2 2 3 1 3 2 1 1 3 5
7 7 7 7 7 7 6 7 7 5 5 3 4 4 4 4 4 4 4 3 4 3 4 5 5 6 6 6 6 6 6 6 6 5 6 6 6 7 7 7 6 6 6 5 3 4 3 2 1 2 2 1 1 2 1 0 2 2 1 2 1 1
8 7 7 8 8 7 7 6 7 7 6 6 5 3 1 1 3 3 3 4 4 3 4 6 5 5 6 6 6 6 6 7 7 6 6 7 7 7 7 7 5 6 6 5 4 5 4 3 3 5 3 1 1 2 4 3 3 2 5 2 2 1
7 7 7 7 8 7 8 7 7 6 4 4 3 3 3 3 2 3 4 5 5 5 4 5 5 5 6 6 6 6 6 7 7 7 7 7 7 6 6 7 7 7 6 6 6 5 4 4 3 3 4 3 2 2 1 3 4 4 4 4 4 2
9 8 7 8 8 8 7 7 7 6 5 3 2 1 3 3 4 4 5 4 5 5 5 4 5 6 5 7 6 7 7 7 7 7 7 7 7 8 9 8 8 7 7 7 6 6 5 5 4 4 3 4 3 3 1 1 2 2 2 3 5 4
11 9 8 9 8 8 7 6 6 6 7 5 3 3 3 4 4 4 6 5 5 5 5 5 5 5 6 7 7 7 8 9 8 8 8 8 9 9 9 9 9 8 7 8 6 7 7 6 5 5 5 4 3 3 2 2 3 4 3 2 4 5
11 8 9 9 9 9 7 7 7 8 8 7 6 5 5 5 4 5 6 5 5 5 5 5 5 5 6 6 6 7 7 8 8 8 8 9 8 8 8 8 8 10 10 9 7 7 7 7 6 6 6 5 5 4 4 3 4 5 5 4 5 5
11 11 9 9 9 8 7 7 6 8 8 7 8 6 7 8 7 8 7 6 5 5 5 5 5 5 5 5 6 6 7 7 7 8 8 8 8 8 7 8 7 7 7 8 8 7 7 8 8 6 7 6 5 4 4 4 4 4 4 5 5 7
13 11 10 9 10 9 8 8 8 8 8 7 8 8 8 7 7 7 6 6 6 6 6 6 5 6 6 6 5 6 6 6 7 7 8 9 9 9 8 8 8 8 8 8 7 7 7 8 8 6 5 5 4 4 4 4 4 4 4 4 5 6
12 11 10 10 10 10 9 8 8 8 7 7 7 7 7 7 7 6 7 8 8 7 7 7 7 7 7 7 5 6 6 7 7 8 8 8 8 8 8 8 8 8 8 7 7 8 7 7 7 7 5 4 5 4 4 4 4 4 4 5 5 5
10 10 11 11 10 10 9 8 7 7 7 6 7 6 6 5 7 7 7 7 6 6 6 7 7 7 8 7 7 6 7 7 7 7 7 7 7 8 8 7 7 7 6 6 7 6 6 6 6 6 6 5 3 4 3 3 3 4 4 4 5 5
9 8 8 7 7 7 6 5 6 7 7 6 5 5 4 4 4 5 7 7 7 7 6 6 6 7 7 7 7 7 7 7 7 7 7 7 7 7 8 7 6 6 6 4 6 6 5 5 5 5 4 4 3 3 3 3 3 3 3 3 4 4
8 7 8 9 8 6 4 4 4 3 4 5 6 7 6 6 6 5 5 5 6 6 5 5 6 7 8 7 7 8 7 7 7 7 7 7 7 7 7 6 6 6 6 5 5 5 4 4 4 3 3 3 2 2 2 2 2 2 2 2 2 3
Wind_Direction
109 115 120 127 128 134 150 156 151 157 161 136 140 147 174 158 157 162 163 160 158 173 171 163 160 161 157 162 148 152 156 156 157 163 166 167 144 148 151 149 138 137 136 133 127 116 99 92 78 104 117 135 158 180 175 172 167 167 176 153 169 136
115 121 121 118 121 118 129 141 138 138 137 131 156 157 152 164 173 168 173 156 173 171 166 154 159 171 167 162 155 155 161 162 161 163 166 176 148 144 151 149 145 136 131 129 132 135 119 89 51 31 85 128 174 167 163 170 178 165 169 169 177 117
126 127 125 126 121 107 113 125 130 139 138 135 154 136 153 156 164 164 163 173 173 177 167 157 165 176 173 170 162 163 169 169 165 165 168 170 165 129 143 155 148 130 116 117 145 130 130 128 71 3 325 168 135 158 156 167 179 169 173 154 190 126
128 135 137 130 123 123 124 138 127 131 143 139 130 139 143 122 130 142 135 157 178 172 173 162 168 162 167 180 167 170 179 174 173 172 164 173 166 142 132 138 139 123 120 130 132 141 132 126 124 350 335 250 138 137 162 167 183 177 172 163 170 149
132 130 129 130 132 133 130 129 125 124 140 142 130 146 154 155 154 143 129 153 173 170 173 162 151 167 174 174 174 173 185 181 185 180 173 179 183 164 176 146 130 119 120 130 133 115 123 119 110 99 4 352 117 146 160 164 172 182 184 165 159 162
153 135 121 121 125 129 131 135 132 129 140 143 140 148 163 168 165 158 151 156 160 174 175 161 160 159 164 176 189 184 188 181 186 185 178 184 185 182 154 147 128 127 131 126 129 126 110 96 115 116 328 23 158 151 174 170 171 191 192 191 156 178
150 134 130 133 134 131 126 128 135 140 144 144 150 153 167 162 169 179 184 179 183 193 167 184 172 164 153 152 191 195 188 188 190 188 178 190 190 187 165 157 154 136 147 158 141 132 131 107 86 115 221 258 155 143 181 186 180 190 202 201 157 184
148 146 146 147 139 141 130 136 143 143 153 149 154 169 178 174 159 176 191 197 193 186 173 179 197 187 170 180 191 193 186 192 195 190 176 196 199 194 176 174 160 133 158 166 151 143 126 119 115 94 100 275 275 145 180 194 195 204 205 206 199 182
143 144 149 149 141 140 144 151 151 155 170 145 155 171 178 180 174 179 194 197 196 185 181 180 194 191 171 187 193 186 190 192 211 185 187 196 203 186 187 182 156 148 156 157 159 146 143 132 174 125 113 236 264 268 185 193 211 211 222 224 220 175
149 153 154 162 144 146 150 151 158 163 134 145 153 163 171 192 185 174 183 200 196 189 182 186 193 187 195 171 219 206 200 194 208 197 206 210 205 196 190 182 159 148 163 172 172 149 154 150 190 192 153 221 223 239 222 214 205 225 229 231 234 206
156 161 159 154 151 144 148 147 150 173 144 137 140 127 155 212 207 173 178 200 197 192 183 184 198 191 74 33 254 246 209 190 199 194 209 214 211 206 191 194 179 168 177 182 161 153 179 161 204 227 176 204 206 226 231 225 225 227 240 239 238 239
162 161 167 150 153 151 154 139 127 113 124 140 145 154 279 269 168 185 187 200 200 198 186 171 204 186 130 213 195 210 247 339 237 206 207 210 205 215 171 184 210 166 140 168 161 173 171 198 217 230 209 197 192 215 222 227 236 230 242 245 247 239
178 160 176 171 155 157 153 125 115 103 114 120 147 158 181 198 139 58 123 197 227 215 157 181 181 227 191 164 231 189 180 189 233 210 199 207 212 215 205 185 190 184 174 166 184 176 174 192 220 225 244 223 204 212 219 224 229 233 241 242 243 239
173 175 162 135 129 123 124 123 114 119 113 122 120 130 150 180 166 100 336 60 5 173 146 132 94 144 67 99 240 208 192 215 206 221 209 203 205 211 212 199 190 186 191 186 184 178 199 220 211 225 235 256 247 234 210 219 220 228 232 244 241 236
168 160 142 130 128 118 116 117 125 125 130 142 138 117 104 129 138 156 150 148 346 15 24 157 143 167 186 199 194 227 219 215 203 210 208 204 205 198 210 215 197 197 180 197 202 164 198 278 287 269 261 255 252 228 204 220 208 223 224 228 233 235
152 140 124 121 115 107 109 119 120 122 122 128 137 136 118 94 91 108 119 119 154 190 167 118 149 149 197 217 215 202 213 196 200 200 205 202 213 211 216 213 205 209 189 196 217 206 201 274 285 291 273 253 249 251 239 212 209 222 221 214 227 224
148 139 130 122 117 109 109 112 106 102 99 112 118 118 105 103 104 95 94 80 68 73 113 118 133 133 117 250 123 101 139 197 215 215 203 179 261 279 246 221 204 209 209 203 200 284 279 296 300 292 253 267 255 232 250 243 223 221 187 213 222 224
135 138 137 135 125 118 112 110 111 112 112 106 95 93 95 94 86 82 81 85 100 91 88 109 128 156 174 151 227 174 200 202 176 150 190 180 193 209 239 235 223 210 223 223 219 213 245 316 322 312 313 307 284 260 247 254 253 218 226 226 218 229
144 144 134 120 108 99 102 94 96 109 110 106 98 83 87 89 81 86 83 91 90 95 90 91 95 100 100 98 98 123 182 163 161 100 102 182 202 193 215 231 238 251 256 239 243 231 261 268 306 317 322 310 292 278 266 235 238 238 234 237 240 228
151 145 130 123 128 123 122 123 118 115 108 98 103 100 86 88 90 87 89 91 92 88 86 80 78 93 98 105 107 107 111 117 113 133 162 104 178 184 218 226 206 206 229 261 343 296 251 208 194 278 250 264 265 266 250 224 228 239 236 232 231 226
154 156 153 146 145 141 133 118 110 122 124 128 116 109 97 91 90 87 88 90 90 89 91 81 74 84 87 92 96 102 120 126 147 161 178 142 132 120 178 241 235 177 176 220 231 222 224 212 240 249 237 250 263 240 234 218 228 231 229 232 227 227
152 170 168 155 146 148 144 144 144 142 136 139 141 140 127 121 107 95 84 81 83 90 88 88 84 84 81 75 78 84 89 104 134 105 102 124 116 171 195 180 182 146 183 189 201 191 179 165 198 238 258 256 265 247 225 218 227 234 235 224 219 223
159 166 174 164 155 146 124 88 110 134 140 120 37 41 107 114 119 108 85 84 86 89 95 94 87 83 79 72 70 73 80 86 86 96 99 90 113 144 201 228 192 174 142 190 142 184 190 212 208 161 206 251 300 288 177 234 215 234 232 234 223 226
161 171 173 176 139 101 92 88 79 97 73 79 127 130 116 127 120 114 98 86 82 81 88 87 84 88 85 77 72 75 77 75 74 73 85 91 87 78 50 36 27 109 114 127 173 156 169 177 187 176 224 283 46 14 314 218 320 273 230 223 223 236
165 172 175 163 145 130 119 103 101 92 93 96 106 130 135 129 123 113 109 96 84 81 86 86 82 82 87 86 83 81 82 80 76 67 71 77 79 81 84 62 44 66 80 139 168 114 65 145 202 206 157 185 191 208 239 343 321 254 58 216 220 239
167 169 173 164 155 148 146 140 140 137 144 152 155 171 175 157 154 145 111 107 101 84 91 86 86 89 88 88 86 87 88 90 85 75 73 75 75 73 64 68 61 55 56 58 88 105 105 51 99 181 192 214 30 308 281 159 314 262 39 96 115 132
171 174 174 166 164 153 148 155 157 159 163 170 171 184 40 90 138 118 115 111 103 91 92 99 90 92 91 88 89 87 86 87 87 84 82 79 70 65 63 58 58 67 63 57 65 83 69 74 95 51 34 80 44 270 268 277 267 259 268 154 130 121
172 177 181 170 174 168 160 160 154 153 163 178 174 160 162 158 128 133 127 118 115 106 96 98 102 96 99 97 92 88 88 88 84 81 80 78 77 73 76 69 60 63 63 60 61 68 67 45 36 59 18 27 53 25 292 261 260 275 296 289 271 278
175 178 183 184 177 178 170 165 161 161 165 162 147 128 146 150 157 151 138 129 122 115 105 93 94 100 101 102 96 95 90 86 84 82 83 82 77 74 70 68 64 61 61 61 63 69 70 58 52 40 16 27 15 10 354 50 10 347 289 282 275 280
179 183 180 188 186 176 172 163 163 170 175 161 158 135 156 158 162 166 152 144 136 132 126 117 103 102 102 101 100 98 95 92 87 83 80 78 77 73 69 68 64 64 63 68 59 54 57 59 56 50 39 28 11 353 333 1 11 343 318 285 287 296
184 180 178 188 188 179 174 174 176 174 179 170 162 156 157 162 167 171 163 158 152 139 139 129 122 113 108 108 102 99 99 98 97 94 90 83 75 74 70 69 67 64 58 57 57 58 59 51 53 52 44 40 39 30 17 355 7 343 328 302 293 283
188 184 178 187 190 183 179 181 183 176 180 180 170 173 176 171 176 176 168 162 151 146 143 137 135 130 126 122 116 109 109 108 105 103 97 94 91 85 80 75 69 65 65 62 59 58 53 49 43 51 46 42 40 31 31 18 3 346 344 317 308 293
189 183 181 184 191 188 186 185 182 184 187 177 183 185 183 174 173 174 170 163 164 162 155 156 155 145 141 137 125 122 118 112 110 108 107 104 100 96 91 87 82 79 72 68 65 64 64 59 52 43 39 38 32 28 28 14 1 350 338 324 312 300
188 179 178 185 190 190 197 190 183 185 188 180 188 191 190 180 173 175 173 172 176 171 169 169 162 159 153 147 135 126 120 112 112 113 110 107 104 98 95 93 93 87 85 82 78 74 73 71 66 61 49 44 35 34 23 12 356 345 343 330 325 314
188 182 187 188 187 193 195 192 188 190 189 194 193 191 197 189 172 171 178 178 182 175 176 170 170 156 154 151 142 137 133 129 127 124 120 115 109 101 97 95 94 93 87 85 82 79 75 69 62 55 50 42 47 45 30 21 10 0 354 338 323 321
191 181 190 193 201 202 199 194 191 192 197 200 207 200 194 184 187 181 174 180 182 183 184 170 161 152 156 153 148 142 139 133 134 131 126 122 115 106 105 102 100 100 98 98 94 87 84 82 73 70 65 48 44 46 29 24 6 15 360 337 311 310
201 197 193 192 188 187 194 197 208 230 220 217 218 214 204 191 189 188 185 185 187 188 173 172 163 160 157 157 152 148 141 137 138 133 129 125 120 117 114 107 106 107 101 99 96 92 87 86 86 80 71 64 52 61 54 31 24 9 6 348 314 294